Location: Hopewell Observatory
(38.8698°N, 77.6988°W)
Time: 17:44:44
(UTC-04:00)

Amateur Radio Satellites - All Passes

Search period start: 31 August 2016 17:14
Search period end: 01 September 2016 17:14
Location: Hopewell Observatory, 38.8698°N, 77.6988°W

Satellite Date Start Highest point End Downlink Frequencies (MHz)
Time Altitude Azimuth
CUBESAT XI-V 31 Aug 17:20:50 17:23:50 17° 92° (E) 17:26:48 437.345
CUTE-I 31 Aug 17:22:44 17:25:56 16° 62° (ENE) 17:29:09 437.470
MOZHAYETS 4 31 Aug 17:24:57 17:29:25 54° 286° (WNW) 17:33:54
BRITE-PL 31 Aug 17:34:20 17:38:58 40° 70° (ENE) 17:43:57 437.365/2234.400
BEESAT 2 31 Aug 18:06:03 18:09:48 37° 54° (NE) 18:13:32 435.950
DOVE 4 31 Aug 18:11:32 18:15:24 21° 65° (ENE) 18:19:18 437.250
BEESAT 3 31 Aug 18:15:05 18:19:04 85° 236° (SW) 18:23:00 437.485
LilacSat-2 31 Aug 18:22:03 18:25:46 49° 74° (ENE) 18:29:28 437.200
KKS-1 31 Aug 18:25:23 18:28:19 18° 295° (WNW) 18:31:15 437.445
GOMX 1 31 Aug 18:25:33 18:30:37 59° 74° (ENE) 18:35:59 467.674
Cosmos 2504 31 Aug 18:33:26 18:40:32 59° 79° (E) 18:47:36 435.465 / 435.565
NOAA 18 31 Aug 18:37:09 18:42:39 72° 73° (ENE) 18:48:10 137.9125
HORYU 2 31 Aug 18:45:18 18:47:36 14° 268° (W) 18:49:54 437.375
NOAA 15 31 Aug 18:46:55 18:52:08 66° 258° (WSW) 18:57:24 137.62
STARS 31 Aug 18:48:58 18:52:04 19° 294° (WNW) 18:55:10 437.465
Cubesat XI-IV 31 Aug 18:49:38 18:54:59 81° 257° (WSW) 19:00:21 437.490
Cosmos 2491 31 Aug 18:50:55 18:59:36 75° 279° (W) 19:08:25 435.465 / 435.565
CUBESAT XI-V 31 Aug 18:56:54 19:01:25 47° 287° (WNW) 19:05:54 437.345
CUTE-I 31 Aug 19:00:09 19:05:26 64° 258° (WSW) 19:10:44 437.470
YUBILEINY 31 Aug 19:11:28 19:18:47 31° 276° (W) 19:26:04 435.215
BRITE-PL 31 Aug 19:13:44 19:17:36 23° 268° (W) 19:21:43 437.365/2234.400
AIST 2 31 Aug 19:18:47 19:20:24 12° 42° (NE) 19:22:00 435.215
CANX-2 31 Aug 19:26:47 19:30:04 23° 69° (ENE) 19:33:21 2200.000
CUTE 1.7 + AOD 2 31 Aug 19:32:00 19:35:15 22° 69° (ENE) 19:38:32 437.475
BEESAT 2 31 Aug 19:44:39 19:47:19 17° 250° (WSW) 19:49:59 435.950
CUBEBUG 2 31 Aug 19:46:39 19:48:54 14° 65° (ENE) 19:51:10 437.445
DOVE 4 31 Aug 19:47:38 19:52:40 48° 262° (W) 19:57:49 437.250
HO-68 31 Aug 19:48:06 19:55:04 56° 69° (ENE) 20:02:04 435.675
CINEMA 3 31 Aug 19:55:51 20:00:47 62° 75° (ENE) 20:05:40 145.822/145.860
LilacSat-2 31 Aug 19:59:50 20:00:19 10° 269° (W) 20:00:49 437.200
GOMX 1 31 Aug 20:05:55 20:09:06 16° 270° (W) 20:12:24 467.674
PCSat 31 Aug 20:20:20 20:25:36 49° 57° (ENE) 20:30:50 145.827
NOAA 18 31 Aug 20:21:03 20:23:48 14° 269° (W) 20:26:33 137.9125
STRAND 1 31 Aug 20:26:38 20:31:44 70° 102° (ESE) 20:36:50 437.568
Cosmos 2504 31 Aug 20:28:06 20:33:14 22° 277° (W) 20:38:24 435.465 / 435.565
SEEDS 31 Aug 20:30:37 20:34:45 75° 75° (ENE) 20:38:55 437.485
Oscar 11 31 Aug 20:36:43 20:39:40 18° 67° (ENE) 20:42:37 145.826/435.025
AIST 1 31 Aug 20:41:21 20:45:45 75° 264° (W) 20:50:05
AAUSAT CUBESAT 2 31 Aug 20:48:42 20:52:45 63° 75° (ENE) 20:56:50 437.432
FUNcube-1 31 Aug 20:49:44 20:53:16 24° 69° (ENE) 20:56:44 145.935
Cosmos 2491 31 Aug 20:54:01 20:58:06 14° 300° (WNW) 21:02:12 435.465 / 435.565
AIST 2 31 Aug 20:55:15 20:59:27 84° 238° (WSW) 21:03:38 435.215
COMPASS 1 31 Aug 21:01:19 21:05:24 69° 258° (WSW) 21:09:32 437.405
CANX-2 31 Aug 21:02:11 21:05:46 27° 264° (W) 21:09:23 2200.000
CUTE 1.7 + AOD 2 31 Aug 21:07:20 21:10:57 28° 264° (W) 21:14:34 437.475
UWE-3 31 Aug 21:08:30 21:13:00 68° 76° (ENE) 21:17:25 435.000/436.395/437.385
ZACube-1 31 Aug 21:13:00 21:17:15 47° 73° (ENE) 21:21:24 437.345
CUBEBUG 2 31 Aug 21:20:28 21:25:03 59° 260° (W) 21:29:33 437.445
HUMSAT D 31 Aug 21:22:44 21:23:56 11° 64° (ENE) 21:25:08 437.325/437.525
PRISM 31 Aug 21:26:18 21:30:01 30° 98° (E) 21:33:41 437.425
GONETS M04 31 Aug 21:31:44 21:36:56 16° 62° (ENE) 21:42:06
CINEMA 3 31 Aug 21:35:39 21:38:14 14° 269° (W) 21:40:48 145.822/145.860
HO-68 31 Aug 21:37:17 21:43:05 26° 265° (W) 21:48:56 435.675
DELFI C3 31 Aug 21:49:11 21:52:56 46° 74° (ENE) 21:56:44 145.870
PCSat 31 Aug 22:04:35 22:08:36 22° 254° (WSW) 22:12:37 145.827
O/OREOS (USA 219) 31 Aug 22:05:29 22:07:07 12° 53° (NE) 22:08:45 437.305
STRAND 1 31 Aug 22:07:44 22:10:18 14° 299° (WNW) 22:12:52 437.568
Oscar 11 31 Aug 22:11:33 22:15:31 36° 262° (W) 22:19:30 145.826/435.025
SO-50 31 Aug 22:19:06 22:23:20 30° 113° (ESE) 22:27:33 436.795
AUBIESAT-1 31 Aug 22:19:17 22:22:18 17° 61° (ENE) 22:25:17 437.475
FUNcube-1 31 Aug 22:25:35 22:29:22 28° 264° (W) 22:33:07 145.935
M-CUBED/EXP-1 PRIME 31 Aug 22:28:02 22:31:54 26° 63° (ENE) 22:35:44 437.505
ANTELSAT 31 Aug 22:39:20 22:42:31 20° 94° (E) 22:45:40 437.575/2403.000
UWE-3 31 Aug 22:49:13 22:49:50 10° 270° (W) 22:50:26 435.000/436.395/437.385
ZACube-1 31 Aug 22:51:19 22:53:43 14° 268° (W) 22:56:06 437.345
HUMSAT D 31 Aug 22:54:58 22:59:03 59° 260° (W) 23:03:07 437.325/437.525
PRISM 31 Aug 23:01:58 23:05:07 21° 293° (WNW) 23:08:14 437.425
AISAT 31 Aug 23:04:46 23:07:25 16° 65° (ENE) 23:10:04 437.250
TIGRISAT 31 Aug 23:08:15 23:12:17 40° 99° (E) 23:16:17 435.000
RS-15 31 Aug 23:13:58 23:20:59 19° 97° (E) 23:28:09 29.354- 29.394
ESTCUBE 1 31 Aug 23:14:10 23:18:13 34° 70° (ENE) 23:22:17 437.505/2401.250
Cosmos 2499 31 Aug 23:16:55 23:23:51 57° 79° (E) 23:30:57 435.465 / 435.565
PHONESAT 2.4 31 Aug 23:25:26 23:27:23 16° 148° (SSE) 23:29:20 2401.200-2431.200
GONETS M04 31 Aug 23:26:14 23:35:10 84° 84° (E) 23:44:00
DELFI C3 31 Aug 23:26:40 23:28:02 12° 269° (W) 23:29:25 145.870
SPROUT 31 Aug 23:37:02 23:39:38 16° 66° (ENE) 23:42:15 437.525
UNISAT 6 31 Aug 23:38:17 23:42:35 82° 284° (WNW) 23:46:50 437.425
CUBEBUG 1 31 Aug 23:39:36 23:43:44 41° 72° (ENE) 23:47:55 437.445
CUSAT 1 31 Aug 23:40:01 23:43:04 66° 281° (WNW) 23:47:01 437.405
DANDE 31 Aug 23:40:20 23:42:19 19° 90° (E) 23:44:28 436.750
O/OREOS (USA 219) 31 Aug 23:42:29 23:47:06 77° 251° (WSW) 23:51:41 437.305
DUCHIFAT 1 31 Aug 23:48:32 23:50:41 14° 92° (E) 23:52:50 145.980
VELOX 1 31 Aug 23:49:45 23:53:58 44° 72° (ENE) 23:58:13 145.980
DX 1 31 Aug 23:51:31 23:55:21 31° 70° (ENE) 23:59:13 434.975-435.025
AUBIESAT-1 31 Aug 23:51:48 23:56:19 52° 255° (WSW) 00:00:49 437.475
QB50P2 31 Aug 23:57:07 00:00:24 22° 95° (E) 00:03:38 145.880/145.840
SO-50 31 Aug 23:59:23 00:03:44 32° 309° (NW) 00:08:05 436.795
POLYITAN 1 31 Aug 23:59:36 00:02:53 22° 95° (E) 00:06:08 437.675
M-CUBED/EXP-1 PRIME 01 Sep 00:01:57 00:06:12 34° 258° (WSW) 00:10:28 437.505
NANOSAT C BR1 01 Sep 00:03:42 00:07:02 22° 95° (E) 00:10:20 145.865
ANTELSAT 01 Sep 00:15:30 00:19:15 31° 290° (WNW) 00:23:00 437.575/2403.000
UKube-1 01 Sep 00:22:31 00:26:43 53° 73° (ENE) 00:30:57 .
BUGSAT 1 01 Sep 00:24:15 00:26:28 14° 92° (E) 00:28:39 437.445
50 SAT 01 Sep 00:28:43 00:32:14 57° 259° (W) 00:35:47 437.505
AISAT 01 Sep 00:39:10 00:43:28 48° 260° (W) 00:47:49 437.250
TIGRISAT 01 Sep 00:46:00 00:48:38 16° 294° (WNW) 00:51:15 435.000
QB50P1 01 Sep 00:49:55 00:54:08 86° 100° (E) 00:58:20 145.935-145.965
ESTCUBE 1 01 Sep 00:51:44 00:55:05 21° 266° (W) 00:58:27 437.505/2401.250
PHONESAT 2.4 01 Sep 01:00:24 01:03:23 72° 162° (SSE) 01:06:23 2401.200-2431.200
POPSAT HIP 1 01 Sep 01:00:26 01:04:37 72° 285° (WNW) 01:08:48 437.405
JAS-2 01 Sep 01:02:44 01:09:47 60° 101° (E) 01:17:24 435.910
SPROUT 01 Sep 01:11:07 01:15:13 43° 261° (W) 01:19:21 437.525
Cosmos 2499 01 Sep 01:11:12 01:16:23 22° 276° (W) 01:21:39 435.465 / 435.565
TISAT 1 01 Sep 01:12:58 01:16:54 38° 72° (ENE) 01:20:51 437.305
CUBEBUG 1 01 Sep 01:17:23 01:20:12 16° 267° (W) 01:23:00 437.445
RS-15 01 Sep 01:19:53 01:31:22 83° 118° (ESE) 01:43:32 29.354- 29.394
DUCHIFAT 1 01 Sep 01:22:36 01:26:36 44° 287° (WNW) 01:30:33 145.980
GONETS M04 01 Sep 01:25:15 01:30:46 19° 282° (WNW) 01:36:18
SWISSCUBE 01 Sep 01:26:19 01:28:27 13° 62° (ENE) 01:30:35 437.505
VELOX 1 01 Sep 01:27:55 01:30:38 16° 267° (W) 01:33:20 145.980
DX 1 01 Sep 01:28:10 01:31:33 22° 265° (W) 01:34:57 434.975-435.025
QB50P2 01 Sep 01:32:33 01:36:11 28° 290° (WNW) 01:39:47 145.880/145.840
POLYITAN 1 01 Sep 01:35:03 01:38:39 28° 290° (WNW) 01:42:14 437.675
NANOSAT C BR1 01 Sep 01:39:10 01:42:44 27° 290° (WNW) 01:46:15 145.865
BEESAT 01 Sep 01:41:52 01:44:53 17° 64° (ENE) 01:47:55 436.000
BUGSAT 1 01 Sep 01:58:10 02:02:02 40° 288° (WNW) 02:05:50 437.445
UKube-1 01 Sep 02:01:14 02:03:04 12° 268° (W) 02:04:53 .
ITUPSAT 1 01 Sep 02:30:40 02:35:16 51° 72° (ENE) 02:39:53 437.325
PHONESAT 2.4 01 Sep 02:36:48 02:39:47 60° 359° (N) 02:42:45 2401.200-2431.200
Oscar 19 01 Sep 02:37:51 02:43:05 75° 103° (ESE) 02:48:15 437.125/150
Gurwin Techsat 1B 01 Sep 02:47:24 02:52:26 42° 98° (E) 02:57:26 435.225
JAS-2 01 Sep 02:48:38 02:54:22 28° 295° (WNW) 03:00:32 435.910
TISAT 1 01 Sep 02:49:58 02:52:40 16° 267° (W) 02:55:24 437.305
MOZHAYETS 4 01 Sep 02:51:28 02:53:08 12° 63° (ENE) 02:54:48
SWISSCUBE 01 Sep 03:00:56 03:05:39 67° 258° (WSW) 03:10:23 437.505
BEESAT 01 Sep 03:17:40 03:22:16 49° 260° (W) 03:26:54 436.000
RS-15 01 Sep 03:34:59 03:45:20 34° 324° (NW) 03:56:10 29.354- 29.394
KKS-1 01 Sep 03:44:37 03:48:38 33° 70° (ENE) 03:52:40 437.445
AO-85 01 Sep 03:57:38 04:02:15 31° 113° (ESE) 04:06:42 145.980
ITAMSAT 1 01 Sep 04:02:35 04:07:44 63° 102° (ESE) 04:12:52 435.822/435.867
STARS 01 Sep 04:07:21 04:11:10 29° 69° (ENE) 04:14:58 437.465
ITUPSAT 1 01 Sep 04:10:36 04:13:22 15° 268° (W) 04:16:08 437.325
PHONESAT 2.4 01 Sep 04:13:11 04:16:11 77° 197° (SSW) 04:19:10 2401.200-2431.200
Oscar 19 01 Sep 04:19:14 04:21:43 14° 299° (WNW) 04:24:12 437.125/150
CUBESAT XI-V 01 Sep 04:23:42 04:26:12 15° 64° (ENE) 04:28:43 437.345
MOZHAYETS 4 01 Sep 04:25:11 04:29:42 67° 258° (WSW) 04:34:15
Gurwin Techsat 1B 01 Sep 04:27:56 04:32:06 24° 294° (WNW) 04:36:16 435.225
AO-7 01 Sep 04:41:59 04:50:11 59° 103° (ESE) 04:58:18 29.400- 29.500
Cosmos 2491 01 Sep 05:02:52 05:11:29 53° 77° (ENE) 05:20:03 435.465 / 435.565
KKS-1 01 Sep 05:21:50 05:25:14 21° 265° (W) 05:28:40 437.445
AO-85 01 Sep 05:37:49 05:42:40 36° 308° (NW) 05:47:17 145.980
BRITE-PL 01 Sep 05:41:26 05:45:01 17° 89° (E) 05:48:32 437.365/2234.400
ITAMSAT 1 01 Sep 05:43:36 05:46:39 16° 298° (WNW) 05:49:42 435.822/435.867
STARS 01 Sep 05:43:51 05:47:28 24° 264° (W) 05:51:05 437.465
PHONESAT 2.4 01 Sep 05:50:08 05:52:12 17° 211° (SSW) 05:54:17 2401.200-2431.200
RS-15 01 Sep 05:55:18 06:03:18 19° 358° (N) 06:11:25 29.354- 29.394
CUBESAT XI-V 01 Sep 05:58:34 06:03:05 55° 260° (W) 06:07:39 437.345
STRAND 1 01 Sep 06:07:00 06:07:55 10° 59° (ENE) 06:08:50 437.568
YUBILEINY 01 Sep 06:12:40 06:21:20 64° 92° (E) 06:30:02 435.215
GOMX 1 01 Sep 06:29:57 06:33:53 21° 91° (E) 06:37:37 467.674
ISS 01 Sep 06:34:15 06:36:50 22° 132° (SE) 06:39:26 145.825
HORYU 2 01 Sep 06:34:50 06:39:13 67° 285° (WNW) 06:43:35 437.375
AO-7 01 Sep 06:35:29 06:42:27 31° 302° (WNW) 06:49:23 29.400- 29.500
SO-50 01 Sep 06:51:51 06:55:22 21° 46° (NE) 06:58:48 436.795
Cosmos 2491 01 Sep 07:00:24 07:07:51 32° 276° (W) 07:15:19 435.465 / 435.565
NOAA 18 01 Sep 07:00:53 07:05:46 33° 97° (E) 07:10:38 137.9125
NOAA 15 01 Sep 07:03:17 07:08:29 52° 100° (E) 07:13:39 137.62
Cubesat XI-IV 01 Sep 07:08:16 07:13:21 45° 99° (E) 07:18:26 437.490
Cosmos 2504 01 Sep 07:09:14 07:17:18 54° 91° (E) 07:24:50 435.465 / 435.565
BRITE-PL 01 Sep 07:18:18 07:23:55 62° 286° (WNW) 07:29:17 437.365/2234.400
CUTE-I 01 Sep 07:18:24 07:23:38 57° 101° (E) 07:28:51 437.470
LilacSat-2 01 Sep 07:30:36 07:34:24 88° 270° (W) 07:38:09 437.200
STRAND 1 01 Sep 07:41:10 07:46:16 88° 78° (ENE) 07:51:24 437.568
DOVE 4 01 Sep 07:48:17 07:53:06 54° 99° (E) 07:57:36 437.250
CINEMA 3 01 Sep 07:53:50 07:56:14 14° 91° (E) 07:58:33 145.822/145.860
BEESAT 3 01 Sep 08:05:08 08:08:04 20° 112° (ESE) 08:11:01 437.485
GOMX 1 01 Sep 08:07:07 08:12:10 44° 289° (WNW) 08:16:54 467.674
ISS 01 Sep 08:10:04 08:13:09 37° 328° (NNW) 08:16:14 145.825
RS-15 01 Sep 08:11:01 08:21:36 31° 33° (NNE) 08:32:05 29.354- 29.394
YUBILEINY 01 Sep 08:11:36 08:18:44 27° 291° (WNW) 08:25:55 435.215
PRISM 01 Sep 08:15:06 08:18:01 19° 67° (ENE) 08:20:57 437.425
SEEDS 01 Sep 08:17:14 08:19:22 14° 92° (E) 08:21:30 437.485
SO-50 01 Sep 08:31:41 08:36:04 46° 244° (WSW) 08:40:19 436.795
CUSAT 1 01 Sep 08:31:50 08:35:12 14° 65° (ENE) 08:38:45 437.405
AAUSAT CUBESAT 2 01 Sep 08:34:37 08:35:41 11° 90° (E) 08:36:45 437.432
NOAA 18 01 Sep 08:41:35 08:46:20 31° 293° (WNW) 08:51:03 137.9125
NOAA 15 01 Sep 08:44:05 08:47:50 20° 296° (WNW) 08:51:34 137.62
COMPASS 1 01 Sep 08:46:01 08:49:08 20° 94° (E) 08:52:13 437.405
CANX-2 01 Sep 08:47:34 08:51:44 52° 99° (E) 08:55:53 2200.000
Cubesat XI-IV 01 Sep 08:49:04 08:53:07 23° 295° (WNW) 08:57:09 437.490
CUTE 1.7 + AOD 2 01 Sep 08:52:39 08:56:48 51° 100° (E) 09:00:57 437.475
CUTE-I 01 Sep 08:59:41 09:03:12 18° 297° (WNW) 09:06:43 437.470
UWE-3 01 Sep 09:01:08 09:03:11 13° 92° (E) 09:05:13 435.000/436.395/437.385
Cosmos 2504 01 Sep 09:03:58 09:10:55 29° 288° (WNW) 09:17:32 435.465 / 435.565
HO-68 01 Sep 09:04:28 09:11:37 66° 103° (ESE) 09:18:41 435.675
AIST 1 01 Sep 09:08:52 09:13:10 68° 96° (E) 09:17:34
CUBEBUG 2 01 Sep 09:13:03 09:16:42 29° 96° (E) 09:20:18 437.445
DOVE 4 01 Sep 09:27:20 09:30:14 16° 297° (WNW) 09:33:02 437.250
CINEMA 3 01 Sep 09:29:27 09:33:39 44° 287° (WNW) 09:37:40 145.822/145.860
BEESAT 2 01 Sep 09:33:49 09:37:45 75° 302° (WNW) 09:41:44 435.950
ANTELSAT 01 Sep 09:37:20 09:40:18 18° 66° (ENE) 09:43:15 437.575/2403.000
BEESAT 3 01 Sep 09:42:03 09:45:32 31° 308° (NW) 09:49:04 437.485
ISS 01 Sep 09:49:12 09:50:21 11° 347° (NNW) 09:51:31 145.825
PRISM 01 Sep 09:49:24 09:53:05 32° 262° (W) 09:56:48 437.425
SEEDS 01 Sep 09:51:15 09:55:17 46° 287° (WNW) 09:59:20 437.485
JUGNU 01 Sep 09:57:41 09:58:46 10° 174° (S) 09:59:52 437.505
Oscar 11 01 Sep 09:59:35 10:03:42 42° 99° (E) 10:07:47 145.826/435.025
TIGRISAT 01 Sep 10:05:30 10:09:33 32° 71° (ENE) 10:13:33 435.000
AAUSAT CUBESAT 2 01 Sep 10:07:23 10:11:29 56° 285° (WNW) 10:15:34 437.432
CUSAT 1 01 Sep 10:10:58 10:18:00 73° 80° (E) 10:25:59 437.405
FUNcube-1 01 Sep 10:14:04 10:18:09 57° 100° (E) 10:22:13 145.935
DANDE 01 Sep 10:14:35 10:20:05 33° 76° (ENE) 10:26:45 436.750
COMPASS 1 01 Sep 10:21:00 10:24:42 31° 289° (WNW) 10:28:23 437.405
RS-15 01 Sep 10:23:36 10:36:05 87° 60° (ENE) 10:48:15 29.354- 29.394
CANX-2 01 Sep 10:25:08 10:27:08 13° 295° (WNW) 10:29:07 2200.000
CUTE 1.7 + AOD 2 01 Sep 10:30:08 10:32:11 13° 295° (WNW) 10:34:13 437.475
GONETS M04 01 Sep 10:32:40 10:38:14 19° 78° (ENE) 10:43:49
UNISAT 6 01 Sep 10:35:18 10:39:52 74° 75° (ENE) 10:44:21 437.425
UWE-3 01 Sep 10:35:56 10:39:53 43° 287° (WNW) 10:43:47 435.000/436.395/437.385
ZACube-1 01 Sep 10:38:31 10:42:38 66° 284° (WNW) 10:46:44 437.345
HUMSAT D 01 Sep 10:40:00 10:43:14 22° 95° (E) 10:46:28 437.325/437.525
QB50P2 01 Sep 10:49:23 10:51:50 15° 66° (ENE) 10:54:18 145.880/145.840
CUBEBUG 2 01 Sep 10:50:01 10:53:09 21° 292° (WNW) 10:56:15 437.445
POLYITAN 1 01 Sep 10:51:50 10:54:19 15° 66° (ENE) 10:56:49 437.675
AIST 2 01 Sep 10:51:59 10:55:24 26° 113° (ESE) 10:58:51 435.215
HO-68 01 Sep 10:53:17 10:58:42 24° 301° (WNW) 11:04:07 435.675
NANOSAT C BR1 01 Sep 10:55:26 10:57:58 16° 66° (ENE) 11:00:30 145.865
PCSat 01 Sep 11:00:27 11:05:44 58° 114° (ESE) 11:11:04 145.827
DELFI C3 01 Sep 11:02:17 11:06:19 86° 281° (WNW) 11:10:20 145.870
ANTELSAT 01 Sep 11:12:20 11:16:41 43° 261° (W) 11:20:58 437.575/2403.000
JAS-2 01 Sep 11:16:43 11:20:14 18° 60° (ENE) 11:23:55 435.910
Oscar 11 01 Sep 11:36:46 11:39:28 16° 294° (WNW) 11:42:11 145.826/435.025
QB50P1 01 Sep 11:40:44 11:44:53 53° 74° (ENE) 11:49:03 145.935-145.965
TIGRISAT 01 Sep 11:42:42 11:46:15 22° 265° (W) 11:49:45 435.000
M-CUBED/EXP-1 PRIME 01 Sep 11:43:46 11:46:19 17° 97° (E) 11:48:44 437.505
JUGNU 01 Sep 11:45:11 11:46:52 11° 184° (S) 11:48:32 437.505
POPSAT HIP 1 01 Sep 11:51:10 11:55:24 69° 75° (ENE) 11:59:39 437.405
Cosmos 2499 01 Sep 11:51:26 11:59:06 50° 91° (E) 12:06:15 435.465 / 435.565
FUNcube-1 01 Sep 11:52:34 11:53:54 11° 296° (WNW) 11:55:12 145.935
CUSAT 1 01 Sep 11:54:19 11:59:32 22° 273° (W) 12:05:09 437.405
DANDE 01 Sep 11:57:00 12:02:48 42° 266° (W) 12:09:55 436.750
50 SAT 01 Sep 11:59:50 12:01:12 12° 92° (E) 12:02:32 437.505
DUCHIFAT 1 01 Sep 12:12:32 12:16:47 74° 258° (WSW) 12:21:02 145.980
HUMSAT D 01 Sep 12:15:23 12:18:48 26° 290° (WNW) 12:22:14 437.325/437.525
O/OREOS (USA 219) 01 Sep 12:16:39 12:18:57 14° 98° (E) 12:21:15 437.305
Oscar 19 01 Sep 12:18:11 12:19:56 12° 60° (ENE) 12:21:42 437.125/150
QB50P2 01 Sep 12:23:09 12:27:15 45° 261° (W) 12:31:22 145.880/145.840
GONETS M04 01 Sep 12:25:06 12:33:51 82° 276° (W) 12:42:45
POLYITAN 1 01 Sep 12:25:39 12:29:45 44° 261° (W) 12:33:51 437.675
NANOSAT C BR1 01 Sep 12:29:15 12:33:19 43° 261° (W) 12:37:23 145.865
AIST 2 01 Sep 12:30:16 12:33:47 27° 309° (NW) 12:37:22 435.215
AISAT 01 Sep 12:30:37 12:34:40 33° 97° (E) 12:38:40 437.250
AO-85 01 Sep 12:31:24 12:34:12 17° 44° (NE) 12:36:53 145.980
RS-15 01 Sep 12:38:03 12:46:59 24° 260° (W) 12:55:49 29.354- 29.394
ESTCUBE 1 01 Sep 12:43:55 12:48:29 90° 70° (ENE) 12:53:01 437.505/2401.250
PCSat 01 Sep 12:45:26 12:49:31 21° 312° (NW) 12:53:37 145.827
BUGSAT 1 01 Sep 12:45:47 12:50:01 74° 257° (WSW) 12:54:17 437.445
SPROUT 01 Sep 12:58:16 13:02:08 32° 97° (E) 13:05:57 437.525
JAS-2 01 Sep 12:59:37 13:04:44 56° 260° (W) 13:10:18 435.910
ISS 01 Sep 13:02:43 13:05:28 24° 27° (NNE) 13:08:12 145.825
CUBEBUG 1 01 Sep 13:05:13 13:09:40 81° 286° (WNW) 13:14:03 437.445
AUBIESAT-1 01 Sep 13:06:50 13:10:36 50° 291° (WNW) 13:14:04 437.475
DX 1 01 Sep 13:16:18 13:20:41 69° 102° (ESE) 13:25:01 434.975-435.025
VELOX 1 01 Sep 13:17:06 13:21:34 76° 284° (WNW) 13:25:59 145.980
M-CUBED/EXP-1 PRIME 01 Sep 13:17:29 13:20:58 30° 295° (WNW) 13:24:12 437.505
QB50P1 01 Sep 13:19:16 13:20:57 12° 269° (W) 13:22:38 145.935-145.965
50 SAT 01 Sep 13:31:30 13:34:55 39° 287° (WNW) 13:38:21 437.505
SRMSAT 01 Sep 13:32:05 13:33:53 11° 181° (S) 13:35:41 437.500
ITAMSAT 1 01 Sep 13:45:01 13:45:48 10° 59° (ENE) 13:46:34 435.822/435.867
Cosmos 2499 01 Sep 13:45:37 13:52:23 30° 287° (WNW) 13:58:48 435.465 / 435.565
UKube-1 01 Sep 13:46:35 13:50:53 69° 286° (WNW) 13:55:10 .
AO-7 01 Sep 13:51:42 13:56:09 16° 49° (NE) 14:00:37 29.400- 29.500
Oscar 19 01 Sep 13:53:19 13:58:29 86° 256° (WSW) 14:03:42 437.125/150
O/OREOS (USA 219) 01 Sep 13:53:29 13:57:50 50° 295° (WNW) 14:02:16 437.305
Gurwin Techsat 1B 01 Sep 14:07:08 14:12:20 59° 73° (ENE) 14:17:33 435.225
AISAT 01 Sep 14:07:33 14:10:55 21° 293° (WNW) 14:14:15 437.250
AO-85 01 Sep 14:10:56 14:14:58 48° 244° (WSW) 14:18:44 145.980
GONETS M04 01 Sep 14:27:11 14:32:08 16° 298° (WNW) 14:37:09
TISAT 1 01 Sep 14:33:13 14:37:26 83° 103° (ESE) 14:41:35 437.305
ITUPSAT 1 01 Sep 14:33:50 14:36:26 14° 92° (E) 14:39:01 437.325
SPROUT 01 Sep 14:34:44 14:37:50 20° 293° (WNW) 14:40:56 437.525
ISS 01 Sep 14:38:55 14:42:02 41° 224° (SW) 14:45:09 145.825
DX 1 01 Sep 14:55:05 14:56:15 11° 298° (WNW) 14:57:26 434.975-435.025
SWISSCUBE 01 Sep 15:02:31 15:06:50 33° 97° (E) 15:11:07 437.505
BEESAT 01 Sep 15:18:50 15:23:24 44° 99° (E) 15:27:56 436.000
ITAMSAT 1 01 Sep 15:19:14 15:24:26 85° 74° (ENE) 15:29:38 435.822/435.867
AO-7 01 Sep 15:39:11 15:47:29 72° 69° (ENE) 15:55:47 29.400- 29.500
Gurwin Techsat 1B 01 Sep 15:49:25 15:52:38 16° 268° (W) 15:55:51 435.225
ITUPSAT 1 01 Sep 16:09:54 16:14:34 55° 287° (WNW) 16:19:14 437.325
MOZHAYETS 4 01 Sep 16:21:37 16:25:40 30° 96° (E) 16:29:43
BEESAT 3 01 Sep 16:24:20 16:25:29 11° 42° (NE) 16:26:39 437.485
YUBILEINY 01 Sep 16:25:05 16:32:28 29° 70° (ENE) 16:39:45 435.215
SWISSCUBE 01 Sep 16:40:37 16:44:26 24° 293° (WNW) 16:48:15 437.505
BRITE-PL 01 Sep 16:51:11 16:54:18 17° 62° (ENE) 16:57:34 437.365/2234.400
BEESAT 01 Sep 16:57:32 17:00:50 19° 295° (WNW) 17:04:07 436.000
CUTE-I 01 Sep 17:04:15 17:05:05 10° 58° (ENE) 17:05:54 437.470
Cosmos 2504 01 Sep 17:05:19 17:09:02 14° 64° (ENE) 17:12:45 435.465 / 435.565
